FW0561 Weather Reports


time (UTC)temp
C
wind
direction
speed
KPH
gust
KPH
rain 1hr
cm
rain 24hr
cm
rain mn
cm
humidity
%
barometer
mb
20200229104816 0 286 1.6 6.4 0.00 0.00 0.00 59 1029.0
20200229104215 0 297 1.6 6.4 0.00 0.00 0.00 59 1029.0
20200229103615 0 307 0.0 6.4 0.00 0.00 0.00 59 1029.0
20200229103015 0 304 3.2 8.0 0.00 0.00 0.00 59 1029.0
20200229102415 0 269 3.2 9.7 0.00 0.00 0.00 60 1029.0
20200229101815 0 284 4.8 8.0 0.00 0.00 0.00 59 1029.2
20200229101215 0 293 3.2 8.0 0.00 0.00 0.00 59 1029.2
20200229100615 0 303 3.2 9.7 0.00 0.00 0.00 59 1029.4
20200229100016 0 270 3.2 9.7 0.00 0.00 0.00 57 1029.5
20200229095415 0 327 3.2 6.4 0.00 0.00 0.00 59 1029.4
20200229094815 0 300 3.2 9.7 0.00 0.00 0.00 57 1029.5
20200229094215 0 293 3.2 6.4 0.00 0.00 0.00 58 1029.5
20200229093615 0 293 3.2 6.4 0.00 0.00 0.00 56 1029.6
20200229093015 0 269 3.2 11.3 0.00 0.00 0.00 55 1029.7
20200229092415 0 286 3.2 11.3 0.00 0.00 0.00 55 1029.7
20200229091815 0 302 3.2 11.3 0.00 0.00 0.00 55 1029.9
20200229091215 0 289 3.2 9.7 0.00 0.00 0.00 60 1029.9
20200229090615 -1 283 0.0 4.8 0.00 0.00 0.00 64 1029.8
20200229090016 -1 344 0.0 0.0 0.00 0.00 0.00 63 1029.8
20200229085415 -1 286 0.0 0.0 0.00 0.00 0.00 59 1029.9
20200229084815 -1 286 0.0 3.2 0.00 0.00 0.00 57 1030.0
20200229084217 0 286 0.0 3.2 0.00 0.00 0.00 56 1030.2
20200229083615 0 276 0.0 4.8 0.00 0.00 0.00 56 1030.1
20200229083015 0 318 1.6 3.2 0.00 0.00 0.00 55 1030.2
20200229082415 0 284 0.0 3.2 0.00 0.00 0.00 52 1030.1
20200229081815 0 238 0.0 4.8 0.00 0.00 0.00 52 1030.3
20200229081215 0 289 1.6 6.4 0.00 0.00 0.00 51 1030.3
20200229080615 1 301 0.0 3.2 0.00 0.00 0.00 50 1030.4
20200229080015 1 259 0.0 6.4 0.00 0.00 0.00 48 1030.4
20200229075415 1 294 0.0 8.0 0.00 0.00 0.00 48 1030.5
20200229074815 1 291 1.6 8.0 0.00 0.00 0.00 49 1030.5
20200229074215 1 297 1.6 9.7 0.00 0.00 0.00 50 1030.5
20200229073615 1 309 1.6 8.0 0.00 0.00 0.00 50 1030.7
20200229073015 1 272 3.2 8.0 0.00 0.00 0.00 51 1030.8
20200229072416 1 271 3.2 8.0 0.00 0.00 0.00 52 1030.9
20200229071815 2 334 3.2 6.4 0.00 0.00 0.00 49 1030.9
20200229071215 2 295 3.2 8.0 0.00 0.00 0.00 48 1031.0
20200229070615 3 293 1.6 9.7 0.00 0.00 0.00 46 1031.1
20200229070015 3 317 3.2 9.7 0.00 0.00 0.00 44 1031.1
20200229065415 3 312 3.2 9.7 0.00 0.00 0.00 43 1031.3
20200229064815 3 301 3.2 8.0 0.00 0.00 0.00 43 1031.3
20200229064215 3 286 3.2 8.0 0.00 0.00 0.00 43 1031.4
20200229063615 3 296 1.6 9.7 0.00 0.00 0.00 41 1031.4
20200229063015 3 314 1.6 8.0 0.00 0.00 0.00 41 1031.6
20200229062415 3 306 3.2 11.3 0.00 0.00 0.00 41 1031.7
20200229061815 3 301 3.2 8.0 0.00 0.00 0.00 42 1031.8
20200229061215 3 290 1.6 9.7 0.00 0.00 0.00 42 1031.8
20200229060615 3 272 3.2 11.3 0.00 0.00 0.00 41 1031.9
20200229060015 3 287 4.8 11.3 0.00 0.00 0.00 43 1031.9
20200229055415 2 275 3.2 9.7 0.00 0.00 0.00 44 1032.1
20200229054815 2 309 3.2 9.7 0.00 0.00 0.00 44 1031.9
20200229054215 2 265 3.2 9.7 0.00 0.00 0.00 45 1031.9
20200229053615 2 293 3.2 9.7 0.00 0.00 0.00 43 1032.0
20200229053015 2 311 3.2 9.7 0.00 0.00 0.00 42 1031.9
20200229052415 2 288 3.2 9.7 0.00 0.00 0.00 46 1031.9
20200229051815 1 270 0.0 6.4 0.00 0.00 0.00 51 1031.8
20200229051215 1 281 1.6 6.4 0.00 0.00 0.00 48 1031.7
20200229050615 1 285 1.6 6.4 0.00 0.00 0.00 56 1031.6
20200229050015 2 340 1.6 4.8 0.00 0.00 0.00 51 1031.5
20200229045415 2 343 0.0 4.8 0.00 0.00 0.00 47 1031.6
20200229044815 1 292 0.0 3.2 0.00 0.00 0.00 53 1031.6
20200229044215 2 222 0.0 3.2 0.00 0.00 0.00 48 1031.6
20200229043615 2 183 0.0 3.2 0.00 0.00 0.00 45 1031.4
20200229043015 3 325 1.6 6.4 0.00 0.00 0.00 44 1031.3
20200229042415 3 348 3.2 4.8 0.00 0.00 0.00 42 1031.4
20200229041815 3 335 3.2 6.4 0.00 0.00 0.00 41 1031.3
20200229041215 4 319 1.6 4.8 0.00 0.00 0.00 40 1031.3
20200229040615 3 332 0.0 6.4 0.00 0.00 0.00 41 1031.3
20200229040016 3 278 3.2 4.8 0.00 0.00 0.00 43 1031.2
20200229035415 4 323 1.6 4.8 0.00 0.00 0.00 42 1031.1
20200229034815 5 7 0.0 4.8 0.00 0.00 0.00 37 1031.0
20200229034215 5 349 0.0 1.6 0.00 0.00 0.00 36 1031.1
20200229033615 6 288 0.0 6.4 0.00 0.00 0.00 35 1030.9
20200229033015 6 289 3.2 8.0 0.00 0.00 0.00 33 1030.9
20200229032416 6 259 0.0 9.7 0.00 0.00 0.00 34 1030.9
20200229031816 6 276 3.2 4.8 0.00 0.00 0.00 34 1030.9
20200229031215 6 255 0.0 9.7 0.00 0.00 0.00 32 1030.9
20200229030615 6 278 3.2 11.3 0.00 0.00 0.00 33 1030.7
20200229030016 5 302 4.8 4.8 0.00 0.00 0.00 34 1030.8
20200229025415 6 292 0.0 6.4 0.00 0.00 0.00 32 1030.9
20200229024815 6 311 3.2 6.4 0.00 0.00 0.00 34 1030.8
20200229024215 7 255 3.2 6.4 0.00 0.00 0.00 29 1030.5
20200229023615 7 303 3.2 6.4 0.00 0.00 0.00 31 1030.5
20200229023015 7 6 0.0 6.4 0.00 0.00 0.00 30 1030.4
20200229022415 8 310 3.2 4.8 0.00 0.00 0.00 30 1030.2
20200229021815 8 347 0.0 8.0 0.00 0.00 0.00 27 1030.2
20200229021215 9 62 1.6 9.7 0.00 0.00 0.00 27 1030.1
20200229020615 9 21 1.6 9.7 0.00 0.00 0.00 29 1029.8
20200229020015 9 1 0.0 4.8 0.00 0.00 0.00 26 1029.8
20200229015415 10 343 0.0 4.8 0.00 0.00 0.00 26 1029.7
20200229014815 10 330 0.0 4.8 0.00 0.00 0.00 24 1029.6
20200229014215 10 334 0.0 4.8 0.00 0.00 0.00 24 1029.5
20200229013615 11 46 0.0 8.0 0.00 0.00 0.00 23 1029.3
20200229013015 11 37 3.2 9.7 0.00 0.00 0.00 23 1029.3
20200229012415 11 60 0.0 9.7 0.00 0.00 0.00 21 1029.1
20200229011815 11 4 0.0 9.7 0.00 0.00 0.00 21 1029.0
20200229011215 12 326 0.0 9.7 0.00 0.00 0.00 22 1028.9
20200229010615 12 129 0.0 4.8 0.00 0.00 0.00 21 1028.8
20200229010016 12 110 1.6 14.5 0.00 0.00 0.00 20 1028.6
20200229005415 12 295 3.2 17.7 0.00 0.00 0.00 20 1028.4
20200229004815 12 279 4.8 17.7 0.00 0.00 0.00 20 1028.3
20200229004215 13 264 4.8 14.5 0.00 0.00 0.00 21 1028.3
20200229003616 13 322 3.2 14.5 0.00 0.00 0.00 21 1028.1
20200229003015 13 331 3.2 19.3 0.00 0.00 0.00 20 1028.1
20200229002415 14 304 6.4 20.9 0.00 0.00 0.00 19 1028.1
20200229001815 15 318 8.0 17.7 0.00 0.00 0.00 18 1027.9
20200229001215 15 335 6.4 25.7 0.00 0.00 0.00 18 1027.9
20200229000615 15 314 4.8 22.5 0.00 0.00 0.00 17 1027.9
20200229000016 16 324 4.8 24.1 0.00 0.00 0.00 17 1027.7
20200228235415 16 343 4.8 25.7 0.00 0.00 0.00 16 1027.7
20200228234815 17 336 6.4 20.9 0.00 0.00 0.00 16 1027.7
20200228234215 17 333 4.8 20.9 0.00 0.00 0.00 17 1027.7
20200228233615 17 350 4.8 25.7 0.00 0.00 0.00 16 1027.5
20200228233015 17 330 3.2 20.9 0.00 0.00 0.00 16 1027.5
20200228232415 17 307 3.2 25.7 0.00 0.00 0.00 16 1027.5
20200228231815 18 305 4.8 22.5 0.00 0.00 0.00 15 1027.5
20200228231215 18 313 6.4 25.7 0.00 0.00 0.00 15 1027.2
20200228230615 18 328 4.8 24.1 0.00 0.00 0.00 15 1027.2
20200228230015 18 299 6.4 29.0 0.00 0.00 0.00 15 1027.4
20200228225416 18 342 6.4 29.0 0.00 0.00 0.00 15 1027.3
20200228224815 18 341 12.9 22.5 0.00 0.00 0.00 14 1027.2
20200228224215 18 44 6.4 24.1 0.00 0.00 0.00 15 1027.2
20200228223615 18 339 6.4 25.7 0.00 0.00 0.00 14 1027.1
20200228223015 19 307 4.8 24.1 0.00 0.00 0.00 13 1027.1
20200228222415 19 310 8.0 29.0 0.00 0.00 0.00 13 1027.1
20200228221815 19 320 8.0 25.7 0.00 0.00 0.00 13 1027.0
20200228221215 20 331 6.4 25.7 0.00 0.00 0.00 14 1027.0
20200228220615 20 340 6.4 27.4 0.00 0.00 0.00 13 1026.9
20200228220015 20 305 4.8 27.4 0.00 0.00 0.00 15 1027.0
20200228215415 20 319 6.4 27.4 0.00 0.00 0.00 14 1027.0
20200228214816 20 329 6.4 22.5 0.00 0.00 0.00 14 1026.8
20200228214215 21 312 8.0 24.1 0.00 0.00 0.00 15 1027.0
20200228213615 21 0 4.8 25.7 0.00 0.00 0.00 15 1026.9
20200228213015 21 324 6.4 20.9 0.00 0.00 0.00 16 1027.0
20200228211815 21 319 8.0 20.9 0.00 0.00 0.00 17 1027.0
20200228211215 21 312 0.0 17.7 0.00 0.00 0.00 16 1027.0
20200228210615 21 59 0.0 12.9 0.00 0.00 0.00 17 1027.3
20200228210015 20 76 0.0 11.3 0.00 0.00 0.00 17 1027.2
20200228205415 20 196 0.0 14.5 0.00 0.00 0.00 17 1027.3
20200228204815 20 166 9.7 17.7 0.00 0.00 0.00 18 1027.4
20200228204215 20 116 0.0 11.3 0.00 0.00 0.00 17 1027.3
20200228203615 20 270 0.0 12.9 0.00 0.00 0.00 18 1027.5
20200228203015 19 117 0.0 14.5 0.00 0.00 0.00 17 1027.7
20200228202415 19 153 0.0 14.5 0.00 0.00 0.00 17 1027.7
20200228201815 19 179 6.4 22.5 0.00 0.00 0.00 18 1028.0
20200228201215 19 175 4.8 14.5 0.00 0.00 0.00 18 1028.0
20200228200615 19 1 1.6 11.3 0.00 0.00 0.00 17 1028.1
20200228200016 19 163 1.6 11.3 0.00 0.00 0.00 17 1028.4
20200228195416 18 146 6.4 14.5 0.00 0.00 0.00 18 1028.4
20200228194815 19 73 6.4 17.7 0.00 0.00 0.00 19 1028.4
20200228194215 18 163 9.7 17.7 0.00 0.00 0.00 20 1028.5
20200228193615 18 169 11.3 20.9 0.00 0.00 0.00 19 1028.5
20200228193015 18 146 0.0 22.5 0.00 0.00 0.00 19 1028.7
20200228192415 18 129 6.4 22.5 0.00 0.00 0.00 20 1028.7
20200228191815 18 110 9.7 20.9 0.00 0.00 0.00 19 1028.7
20200228191215 18 116 6.4 20.9 0.00 0.00 0.00 19 1028.9
20200228190615 18 120 14.5 20.9 0.00 0.00 0.00 19 1029.0
20200228190015 17 80 6.4 19.3 0.00 0.00 0.00 20 1029.2
20200228185415 17 101 9.7 20.9 0.00 0.00 0.00 20 1029.4
20200228184815 17 130 11.3 17.7 0.00 0.00 0.00 19 1029.5
20200228184216 17 148 9.7 20.9 0.00 0.00 0.00 21 1029.5
20200228183615 16 135 9.7 19.3 0.00 0.00 0.00 20 1029.7
20200228183015 16 119 3.2 16.1 0.00 0.00 0.00 21 1029.9
20200228182416 16 91 4.8 16.1 0.00 0.00 0.00 21 1029.9
20200228181815 16 128 4.8 17.7 0.00 0.00 0.00 21 1030.1
20200228181215 16 107 4.8 22.5 0.00 0.00 0.00 23 1030.1
20200228180615 16 121 0.0 14.5 0.00 0.00 0.00 22 1030.2
20200228180015 16 172 0.0 11.3 0.00 0.00 0.00 22 1030.4
20200228175415 15 69 0.0 20.9 0.00 0.00 0.00 22 1030.4
20200228174816 16 124 9.7 19.3 0.00 0.00 0.00 23 1030.6
20200228174215 16 125 4.8 14.5 0.00 0.00 0.00 25 1030.6
20200228173615 15 136 4.8 14.5 0.00 0.00 0.00 23 1030.7
20200228173015 15 145 9.7 17.7 0.00 0.00 0.00 23 1030.7
20200228172415 15 161 6.4 22.5 0.00 0.00 0.00 23 1030.9
20200228171815 15 173 9.7 19.3 0.00 0.00 0.00 25 1030.9
20200228171215 15 136 6.4 19.3 0.00 0.00 0.00 24 1031.1
20200228170615 14 51 3.2 19.3 0.00 0.00 0.00 26 1031.1
20200228170015 15 119 11.3 11.3 0.00 0.00 0.00 26 1031.1
20200228165415 14 0 0.0 14.5 0.00 0.00 0.00 26 1031.3
20200228164815 14 88 11.3 12.9 0.00 0.00 0.00 26 1031.3
20200228164215 14 117 4.8 12.9 0.00 0.00 0.00 27 1031.2
20200228163615 13 129 3.2 12.9 0.00 0.00 0.00 27 1031.3
20200228163016 13 120 0.0 9.7 0.00 0.00 0.00 27 1031.3
20200228162415 13 110 0.0 11.3 0.00 0.00 0.00 28 1031.3
20200228161815 12 116 4.8 8.0 0.00 0.00 0.00 29 1031.3
20200228161215 13 85 1.6 6.4 0.00 0.00 0.00 28 1031.5
20200228160615 12 111 0.0 8.0 0.00 0.00 0.00 30 1031.3
20200228160015 11 295 0.0 9.7 0.00 0.00 0.00 31 1031.5
20200228155415 11 0 3.2 9.7 0.00 0.00 0.00 32 1031.5
20200228154815 11 296 3.2 9.7 0.00 0.00 0.00 31 1031.4
20200228154215 10 335 0.0 9.7 0.00 0.00 0.00 32 1031.4
20200228153615 10 312 3.2 11.3 0.00 0.00 0.00 32 1031.5
20200228153015 10 316 0.0 11.3 0.00 0.00 0.00 32 1031.4
20200228152415 9 262 4.8 8.0 0.00 0.00 0.00 32 1031.2
20200228151815 8 274 3.2 6.4 0.00 0.00 0.00 33 1031.2
20200228151215 8 329 0.0 4.8 0.00 0.00 0.00 34 1031.1
20200228150615 7 299 0.0 4.8 0.00 0.00 0.00 35 1031.1
20200228150015 7 323 0.0 6.4 0.00 0.00 0.00 35 1031.1
20200228145415 7 271 3.2 8.0 0.00 0.00 0.00 36 1031.1
20200228144815 6 267 0.0 6.4 0.00 0.00 0.00 37 1031.0
20200228144215 6 311 0.0 4.8 0.00 0.00 0.00 39 1031.0
20200228143615 5 229 0.0 4.8 0.00 0.00 0.00 39 1031.0
20200228143016 5 322 0.0 4.8 0.00 0.00 0.00 40 1031.0
20200228142416 4 306 0.0 9.7 0.00 0.00 0.00 42 1031.0
20200228141815 3 315 0.0 9.7 0.00 0.00 0.00 46 1031.0
20200228141215 2 307 4.8 9.7 0.00 0.00 0.00 47 1030.9
20200228140615 1 309 3.2 8.0 0.00 0.00 0.00 50 1030.9
20200228140015 1 326 3.2 11.3 0.00 0.00 0.00 53 1030.9
20200228135415 0 294 3.2 12.9 0.00 0.00 0.00 53 1030.8
20200228134815 0 285 4.8 11.3 0.00 0.00 0.00 54 1030.9
20200228134215 0 301 1.6 11.3 0.00 0.00 0.00 55 1030.8
20200228133615 0 284 6.4 12.9 0.00 0.00 0.00 56 1030.7
20200228133015 0 336 3.2 12.9 0.00 0.00 0.00 58 1030.6
20200228132415 -1 302 3.2 11.3 0.00 0.00 0.00 60 1030.5
20200228131815 -1 306 4.8 12.9 0.00 0.00 0.00 61 1030.4
20200228131215 -1 312 4.8 9.7 0.00 0.00 0.00 62 1030.2
20200228130615 -1 280 1.6 11.3 0.00 0.00 0.00 61 1030.1
20200228130015 -1 291 3.2 11.3 0.00 0.00 0.00 61 1030.2
20200228125415 -1 324 3.2 11.3 0.00 0.00 0.00 61 1030.0
20200228124815 -1 316 3.2 12.9 0.00 0.00 0.00 61 1029.9
20200228124215 -1 276 3.2 12.9 0.00 0.00 0.00 62 1029.9
20200228123616 -1 286 3.2 11.3 0.00 0.00 0.00 62 1029.9
20200228123016 -1 306 4.8 11.3 0.00 0.00 0.00 62 1029.7
20200228122415 -1 287 3.2 9.7 0.00 0.00 0.00 63 1029.7
20200228121815 -1 298 3.2 8.0 0.00 0.00 0.00 63 1029.5
20200228121215 -1 318 1.6 9.7 0.00 0.00 0.00 61 1029.5
20200228120615 -1 298 3.2 11.3 0.00 0.00 0.00 62 1029.5
20200228120015 -2 285 3.2 6.4 0.00 0.00 0.00 64 1029.4
20200228115415 -2 299 0.0 6.4 0.00 0.00 0.00 66 1029.5
20200228114815 -1 286 3.2 4.8 0.00 0.00 0.00 65 1029.5
20200228114215 -1 289 0.0 4.8 0.00 0.00 0.00 59 1029.5
20200228113615 -1 298 0.0 6.4 0.00 0.00 0.00 59 1029.4
20200228113015 -1 295 4.8 4.8 0.00 0.00 0.00 60 1029.4
20200228112415 -1 292 0.0 4.8 0.00 0.00 0.00 57 1029.4
20200228111815 -1 261 1.6 3.2 0.00 0.00 0.00 58 1029.4
20200228111215 0 234 0.0 6.4 0.00 0.00 0.00 57 1029.4
20200228110615 0 282 0.0 9.7 0.00 0.00 0.00 55 1029.3
20200228110015 0 332 3.2 9.7 0.00 0.00 0.00 58 1029.4
20200228105416 0 316 3.2 8.0 0.00 0.00 0.00 57 1029.2